Theta_e
293 294 294 295 295 296 298 298 298 298 298 298 299 300 300 300 299 293 292 292 290 280 283 284 285 282 288 289 286 287 287 287 285 283 282 274 272 279 277 279 281 279 278 279 277 274 277 284 284 284 287 286 285 286
293 294 294 294 295 296 297 298 298 297 297 297 298 298 298 299 299 295 289 294 294 286 285 287 286 287 286 286 289 286 284 283 287 281 274 274 276 273 273 278 281 278 282 279 284 282 287 285 285 286 287 286 285 285
292 293 294 295 295 296 296 296 296 296 296 297 297 298 298 298 298 295 290 292 290 285 284 283 283 287 289 288 290 288 287 288 285 286 282 278 277 277 274 272 277 280 279 280 282 281 284 285 284 285 286 286 286 286
292 293 293 294 295 295 296 296 296 296 296 296 296 297 297 297 298 296 290 292 289 285 277 282 289 285 288 291 291 291 289 289 288 286 284 279 278 280 275 280 279 281 282 277 277 280 281 282 283 286 286 285 286 285
292 292 293 294 294 295 295 295 295 295 295 295 296 297 296 297 296 293 292 292 291 286 276 280 285 287 289 289 290 291 291 288 286 285 284 280 280 281 280 280 277 282 281 282 282 285 285 284 284 285 285 285 284 285
292 292 293 293 294 293 293 293 294 294 294 295 295 296 295 294 292 287 284 290 292 287 281 276 283 283 285 287 287 286 287 287 286 284 281 281 282 280 273 271 280 283 284 285 285 285 284 284 284 284 284 284 284 283
291 292 292 292 292 292 292 292 292 293 293 294 295 296 296 295 289 282 282 287 292 287 280 275 278 283 284 285 284 284 286 284 286 284 281 279 280 280 274 274 280 281 282 281 281 284 283 283 282 282 282 281 279 278
291 291 290 291 290 291 291 291 292 292 292 294 294 294 292 293 291 284 291 293 289 281 281 275 276 279 283 280 280 283 282 283 281 281 282 279 280 281 277 275 274 272 278 278 277 280 281 280 280 279 279 279 277 276
288 288 289 289 290 290 290 291 292 292 293 293 293 292 285 280 278 281 292 291 285 279 272 272 270 271 282 280 282 281 282 277 282 279 279 281 277 266 267 267 267 267 269 268 272 278 277 275 275 274 274 274 274 273
287 288 288 288 289 289 289 290 292 292 293 291 285 276 271 283 290 286 278 279 277 272 274 271 272 273 279 277 275 277 278 275 274 276 279 275 266 266 265 265 264 264 265 265 274 273 271 271 271 269 266 266 268 268
287 287 287 288 288 289 289 289 291 291 288 278 274 273 283 284 275 267 267 270 268 267 270 271 272 274 280 275 273 277 274 274 273 274 275 273 269 264 262 262 262 261 262 261 263 264 264 262 264 265 262 260 261 263
286 287 287 288 288 289 289 289 289 284 280 280 280 276 271 268 265 266 256 262 263 263 266 271 274 276 276 277 274 273 272 272 270 272 273 268 262 259 258 258 259 258 258 258 258 259 259 259 258 259 256 256 256 259
287 287 288 288 288 288 288 288 290 290 285 282 273 267 267 265 263 259 257 258 261 263 267 270 271 272 276 276 270 271 269 268 272 269 265 260 258 257 256 256 257 257 256 256 256 256 257 257 255 253 254 254 255 257
287 287 287 287 287 288 290 290 289 284 281 271 264 261 260 260 256 252 252 254 262 266 267 269 266 270 268 271 269 267 267 268 265 266 262 257 255 254 255 255 254 254 254 254 253 254 254 254 254 253 251 251 253 254
287 287 286 285 285 286 286 285 282 269 268 260 261 255 255 256 255 255 255 258 263 263 267 267 267 271 267 266 265 265 264 261 260 259 256 254 254 253 253 253 252 252 252 252 251 251 252 252 252 252 251 250 250 252
284 283 283 284 283 283 282 275 270 264 257 255 250 255 256 256 258 256 255 257 261 259 263 264 262 264 262 260 263 256 259 258 257 252 253 253 252 252 251 251 252 251 250 250 249 249 250 251 251 249 249 248 249 248
281 271 283 284 281 277 278 266 265 256 253 253 251 247 248 249 252 252 252 256 259 256 262 256 263 260 262 261 257 252 254 251 250 251 252 252 251 250 250 250 250 249 248 248 247 249 248 249 248 249 250 250 249 248
272 276 281 281 272 271 264 259 257 256 253 253 254 252 250 250 251 252 253 255 254 254 255 257 259 254 250 254 252 250 249 247 249 250 251 250 249 250 249 248 249 248 248 248 246 249 249 249 249 248 247 247 247 246
277 277 280 278 273 263 261 257 256 253 252 251 255 254 252 251 253 254 254 253 249 249 252 252 248 244 245 247 247 247 248 248 247 248 248 247 248 247 247 247 247 246 246 246 245 246 244 243 244 244 245 245 246 246
278 278 277 275 270 260 256 256 256 255 251 254 253 251 251 252 250 248 249 250 248 247 246 245 243 244 244 246 247 246 246 247 245 244 247 249 249 247 248 246 247 247 246 246 246 249 247 250 247 247 245 244 244 247
271 271 272 265 260 256 252 250 252 249 248 251 246 248 249 247 246 246 248 249 248 245 245 245 245 246 248 247 244 242 245 246 244 245 244 245 247 247 247 246 244 244 245 245 244 246 247 246 246 247 248 247 245 246
264 270 261 263 259 255 253 252 251 250 251 246 248 246 246 246 244 246 246 249 245 246 243 244 245 243 243 244 243 244 244 243 243 244 247 246 245 246 246 243 242 244 243 243 243 243 245 246 246 246 243 246 246 245
263 262 256 256 257 254 249 251 250 248 251 248 246 248 246 243 245 247 244 239 242 244 240 240 240 237 240 239 237 239 238 239 240 240 241 241 242 242 243 243 240 240 243 244 241 241 243 245 245 246 245 245 243 244
258 249 248 247 249 245 247 247 248 247 246 246 246 245 245 243 247 248 243 240 245 239 240 240 235 242 240 238 239 240 240 236 238 240 240 237 241 244 239 242 242 242 243 244 242 242 242 242 245 244 243 241 242 242
254 245 246 244 245 246 245 245 245 247 243 240 244 245 245 242 245 243 244 245 242 240 240 236 235 238 239 239 241 240 238 238 240 243 244 240 238 240 243 242 244 246 242 240 241 241 242 241 242 242 243 241 243 244
243 239 242 238 242 243 240 243 240 240 237 243 240 240 238 242 246 245 245 245 242 241 242 242 242 240 239 241 241 241 243 238 237 239 243 241 240 241 242 243 245 247 242 242 241 240 242 244 242 242 244 245 245 243
246 242 239 237 238 238 240 238 237 240 240 241 238 241 242 246 245 248 245 244 245 245 244 242 242 243 244 245 243 244 241 239 243 245 243 241 243 244 246 246 245 246 240 241 240 240 241 243 243 244 244 245 245 243
237 236 241 240 238 234 237 236 238 240 238 237 236 244 246 246 248 248 249 248 243 239 239 241 242 244 244 245 246 244 244 237 238 241 243 244 245 246 246 246 247 252 247 244 244 245 243 243 244 244 244 245 246 247
237 232 233 239 237 238 237 239 239 236 236 234 239 242 243 244 243 242 244 241 234 238 241 244 244 234 240 242 242 242 241 237 241 245 244 248 245 250 244 244 244 244 244 243 247 251 248 245 246 246 246 246 248 248
237 229 238 237 242 244 240 235 234 230 229 231 231 236 238 239 240 238 237 237 241 245 243 241 239 237 243 240 245 246 242 242 243 247 247 251 251 245 240 242 244 246 245 244 245 247 250 249 248 245 244 246 246 247
232 231 237 236 241 236 232 227 225 226 227 227 225 231 236 237 238 241 240 241 239 236 239 246 246 240 241 242 240 241 250 246 244 245 246 248 249 249 249 250 250 249 247 246 246 245 246 245 245 245 245 245 246 246
234 234 238 243 242 233 228 230 229 231 230 231 233 227 233 235 242 249 245 239 238 241 247 245 242 250 248 248 247 248 250 252 250 249 246 247 248 249 249 249 249 247 246 246 246 245 245 244 245 245 245 245 246 246
232 230 231 235 240 241 236 235 237 239 235 235 237 234 234 238 247 251 245 245 251 251 252 250 250 249 249 249 250 252 252 251 251 254 256 255 253 253 253 252 251 249 247 247 247 247 246 246 245 246 246 246 246 247
Wind_Speed
10 11 8 6 4 5 11 14 15 13 11 9 12 13 9 10 9 5 3 3 1 2 2 2 3 3 1 3 8 5 6 4 4 6 5 4 5 7 5 5 9 8 9 6 3 2 13 8 4 13 6 2 2 3
11 12 11 5 5 6 11 13 14 13 12 11 11 11 10 10 7 4 3 1 2 3 1 1 2 2 4 5 2 3 3 5 6 7 2 6 4 2 5 5 0 3 9 9 13 9 2 7 3 2 2 2 1 1
10 12 11 14 10 10 12 13 11 10 11 11 10 10 9 7 6 6 3 1 3 2 1 1 2 3 5 3 4 4 2 3 3 1 6 4 6 5 5 5 5 3 1 4 5 5 5 4 1 2 2 3 1 1
10 10 10 14 10 12 13 15 14 13 12 11 9 9 11 8 8 6 4 1 2 2 3 0 3 2 10 10 6 3 3 5 5 3 4 4 5 2 4 4 5 4 7 6 3 5 3 4 4 4 3 2 3 4
11 10 10 15 16 14 16 15 15 14 13 12 9 11 12 14 14 9 5 4 3 1 2 1 4 5 7 10 7 5 5 6 3 3 4 3 3 5 1 3 1 3 6 6 6 2 4 1 3 2 4 4 4 5
11 13 15 16 16 16 15 14 13 13 11 11 12 9 6 4 5 2 2 2 3 2 3 2 2 5 5 8 11 11 5 5 4 3 3 2 1 2 5 4 3 1 1 2 2 4 7 7 6 4 4 3 4 7
14 17 18 18 16 16 14 12 10 10 9 9 10 13 15 11 4 4 2 2 9 2 3 1 2 4 5 4 3 4 5 4 4 3 3 3 0 3 4 4 5 10 6 8 7 2 6 5 4 6 8 6 5 5
17 15 15 17 16 14 13 11 9 8 7 7 7 8 8 7 7 4 3 9 4 4 3 2 1 2 7 4 3 4 3 2 5 3 2 2 1 3 6 10 11 14 6 12 12 8 8 6 9 11 7 5 11 10
14 14 14 14 15 13 13 11 9 7 7 9 7 4 5 6 4 2 13 5 2 4 4 2 2 1 6 3 3 3 3 4 1 3 2 1 4 7 7 10 13 13 11 13 13 9 12 14 11 11 8 11 10 9
14 15 15 13 13 12 11 9 10 8 9 7 7 5 5 3 13 8 8 4 6 6 4 3 1 2 3 3 3 2 3 3 3 3 1 5 5 9 12 10 10 13 15 16 2 6 8 8 9 9 9 6 7 6
13 13 13 12 12 11 10 10 10 5 9 5 3 2 2 9 4 5 4 5 4 5 4 2 2 3 4 3 2 4 2 2 3 1 2 2 4 5 12 10 11 13 13 13 10 9 8 6 5 6 6 7 7 7
12 12 13 14 13 12 12 10 7 4 1 3 3 3 3 7 5 8 1 4 6 0 5 3 3 3 3 2 4 4 4 3 2 3 4 4 4 8 9 12 12 13 13 11 11 10 10 10 8 6 4 6 5 6
13 13 15 15 17 15 12 8 7 12 3 4 6 6 5 5 9 6 2 4 3 5 4 4 3 3 4 4 4 4 6 2 2 4 4 3 5 8 11 11 12 12 11 10 10 9 7 6 8 8 6 6 6 5
16 18 17 18 16 16 16 16 15 7 5 5 5 7 4 5 4 2 3 3 3 3 5 3 2 3 2 6 2 6 2 1 3 4 3 3 8 10 10 10 8 11 10 10 10 9 9 8 6 7 7 6 5 8
19 18 17 18 17 13 14 16 18 8 6 5 5 4 5 3 1 3 3 2 4 6 4 3 3 3 4 5 3 3 5 4 4 3 2 4 7 7 8 9 9 9 8 7 7 7 8 7 6 6 7 6 6 6
9 12 11 14 16 13 10 10 8 5 7 6 12 5 4 2 4 4 4 3 5 6 3 1 3 5 4 2 6 4 3 1 2 2 1 3 5 6 7 7 6 5 4 5 5 5 5 6 6 5 5 5 6 5
16 3 15 10 9 13 19 7 5 10 7 7 4 1 1 1 1 3 3 5 6 3 3 2 7 2 2 5 5 5 3 1 1 1 1 1 2 5 5 5 5 4 3 4 4 5 3 5 3 5 7 8 5 5
4 5 11 6 5 7 5 8 7 7 9 4 4 3 2 1 3 3 5 5 6 4 3 3 3 9 4 4 1 1 2 3 2 2 2 2 3 4 3 5 6 6 6 5 3 4 4 5 5 4 5 6 5 4
8 8 12 12 8 6 6 7 5 7 3 1 1 2 1 0 1 1 5 5 2 1 4 5 10 4 1 1 1 2 2 2 3 5 5 4 2 4 6 5 5 5 5 5 4 2 2 3 3 2 3 3 3 3
13 20 16 20 11 6 8 5 4 7 3 1 2 4 2 1 3 3 4 6 4 5 11 8 1 2 2 2 2 3 3 2 2 4 3 2 3 5 6 4 4 6 5 5 4 4 4 3 2 3 3 2 3 5
9 9 14 8 6 9 7 4 6 3 2 4 2 2 2 4 5 7 7 5 8 7 4 0 2 3 3 3 2 2 3 2 3 3 3 4 3 4 5 4 3 3 1 3 3 4 4 2 3 4 4 4 4 5
3 12 5 7 7 6 7 4 4 1 4 1 4 3 5 4 5 5 5 8 5 1 3 2 3 2 2 4 3 5 4 3 4 3 6 6 4 4 4 3 2 4 3 3 2 3 4 4 4 4 3 5 4 4
7 6 7 11 9 10 3 3 7 8 6 5 3 6 5 4 2 2 6 1 3 3 2 3 4 3 5 4 3 4 4 5 4 4 4 4 5 5 5 5 2 3 4 4 2 2 4 4 4 4 4 3 2 3
12 13 11 9 10 4 3 8 4 5 5 7 5 4 5 4 6 5 4 3 4 2 1 2 2 4 2 2 2 3 4 3 3 4 4 2 4 5 3 4 4 5 6 4 3 3 3 3 5 3 3 3 4 3
14 16 10 11 6 9 10 8 8 8 4 4 4 5 5 5 5 5 0 5 3 2 3 1 1 2 3 4 4 4 3 3 2 5 4 4 2 4 4 3 5 6 3 2 3 3 3 3 3 4 4 3 6 7
14 7 8 4 6 6 3 5 5 4 3 5 2 4 4 3 6 1 4 3 3 3 3 3 2 2 3 5 3 3 4 3 3 2 5 4 5 4 4 5 7 6 4 4 3 4 5 4 5 6 7 7 7 6
10 6 4 0 3 2 3 2 1 3 5 4 4 6 4 5 2 5 3 3 3 4 4 3 4 4 5 5 4 5 4 5 7 6 3 4 5 6 7 7 8 6 3 5 5 5 6 7 8 7 8 9 8 7
3 4 3 6 3 1 4 2 3 2 2 2 1 4 3 5 5 4 5 3 2 0 2 4 5 5 5 6 5 4 6 1 4 7 7 8 9 8 9 8 9 14 7 6 8 7 7 9 9 10 10 11 13 8
4 3 0 5 3 4 2 3 2 3 2 3 2 3 5 5 4 3 3 1 0 3 4 4 4 2 4 5 6 5 4 2 2 5 5 6 4 5 5 6 6 5 5 6 11 14 12 11 11 12 14 12 11 10
4 1 2 1 3 2 3 3 2 2 1 1 2 4 4 6 6 2 2 1 2 4 4 3 2 1 4 2 5 7 4 6 7 6 5 8 6 3 3 5 6 7 6 7 9 9 11 10 9 7 8 8 9 10
1 2 2 0 2 3 3 1 1 1 1 1 1 3 5 7 8 5 5 4 3 0 2 5 4 4 4 5 5 4 7 3 7 10 10 8 8 9 9 9 8 7 6 7 8 8 9 9 9 10 12 14 15 13
3 3 2 4 4 2 2 3 1 1 2 1 3 1 4 3 5 5 4 5 3 2 8 5 3 7 6 6 5 6 11 9 8 8 11 9 10 11 10 9 8 7 7 9 9 9 10 12 11 11 12 16 16 16
1 1 1 2 4 5 4 5 3 5 1 2 4 4 3 3 7 5 2 6 6 4 5 5 5 5 7 8 9 9 9 8 11 13 15 16 17 15 11 9 8 8 10 10 10 10 13 15 14 16 16 17 17 17
Wind_Direction
36 42 46 47 88 125 150 142 133 121 107 92 80 73 96 122 104 78 71 24 121 100 12 5 338 311 317 158 155 179 95 322 40 89 115 168 125 201 108 162 167 148 161 177 116 209 259 176 47 165 193 341 255 312
44 39 35 54 114 117 126 126 123 115 103 90 86 88 83 83 91 101 100 62 37 77 40 110 269 277 311 344 88 350 148 183 169 107 78 119 128 123 154 180 263 167 179 177 188 203 232 201 159 122 115 229 265 275
43 47 56 63 76 98 119 111 104 106 100 90 81 84 78 86 82 97 94 15 55 99 294 90 317 302 306 301 284 147 302 102 44 119 149 144 122 132 149 238 107 283 174 160 90 269 209 204 107 205 189 183 176 89
37 61 71 97 69 101 114 118 119 108 94 86 83 74 73 78 85 80 84 4 85 117 123 315 294 360 309 331 168 228 138 65 93 57 92 118 122 182 190 152 132 199 124 147 297 288 358 255 219 187 173 93 104 79
46 69 82 109 97 83 91 98 98 91 83 75 85 87 79 78 80 75 71 34 41 53 157 347 318 342 332 1 69 94 123 97 70 72 66 101 122 120 49 86 77 194 162 155 212 178 150 98 96 173 144 114 61 106
69 77 82 89 94 82 77 74 77 80 84 72 78 84 68 91 121 69 83 35 9 50 82 57 272 309 322 7 41 48 44 67 80 87 90 96 286 110 112 103 301 282 72 70 85 62 94 102 71 38 90 37 49 79
84 79 76 81 78 75 65 64 70 75 75 84 88 77 70 80 83 75 94 332 339 61 77 48 343 337 328 354 42 25 23 55 69 81 69 100 176 70 79 91 2 14 42 45 24 125 63 27 86 53 76 53 37 41
75 73 71 72 71 66 59 61 62 69 77 94 105 74 55 82 92 49 33 19 11 91 73 108 308 14 5 6 62 358 51 58 36 95 83 102 7 43 82 31 15 6 350 38 12 20 84 89 62 52 43 30 58 40
75 73 68 67 63 61 52 51 66 66 95 106 65 68 45 33 33 264 327 5 49 109 114 63 76 31 344 16 28 41 17 68 37 63 58 49 47 53 23 7 13 5 13 320 312 65 64 65 57 40 48 39 59 32
73 66 62 63 60 59 45 46 48 75 69 38 39 38 11 355 322 347 8 33 8 349 22 74 340 12 347 7 42 40 17 67 74 44 350 68 80 86 29 24 17 2 4 352 239 34 12 51 50 40 36 25 39 27
73 65 59 56 53 59 43 36 44 47 32 38 48 51 255 341 47 32 47 50 335 28 10 4 16 7 359 39 95 19 72 30 86 10 62 79 89 54 2 8 20 13 13 17 25 37 37 23 24 41 25 26 5 14
81 70 57 54 53 50 46 37 39 50 97 150 128 65 26 31 37 72 353 332 40 328 334 14 1 9 322 10 76 359 80 26 67 357 70 80 76 10 354 360 12 15 11 11 23 25 27 32 17 47 37 6 9 337
85 69 59 51 43 35 24 16 67 95 43 28 40 45 40 321 46 75 359 329 31 344 337 340 32 4 344 31 65 52 61 26 285 46 72 46 0 357 360 359 3 13 6 2 14 24 23 34 37 36 22 11 350 20
82 69 55 45 27 33 40 59 52 33 57 62 64 32 61 2 37 174 176 205 278 303 332 331 24 58 318 43 349 72 303 34 59 60 58 13 355 344 354 2 360 354 351 354 1 0 14 16 27 30 29 13 4 25
73 64 49 39 23 39 46 46 49 41 50 60 44 55 46 253 276 261 247 334 346 304 320 345 30 65 8 70 33 103 39 50 41 72 73 358 346 343 349 357 350 350 348 347 343 355 3 359 13 20 17 5 14 13
60 53 21 36 28 26 40 42 35 62 56 60 33 50 354 53 353 17 355 333 359 328 282 286 98 64 38 89 50 29 74 34 101 65 17 356 359 350 343 331 320 318 324 325 336 334 338 0 4 341 334 3 8 10
62 31 353 21 38 36 36 67 56 48 75 50 29 59 76 83 223 309 328 323 322 308 45 48 53 202 321 52 45 12 55 25 339 293 296 283 321 329 315 304 313 306 321 334 325 346 333 319 353 32 20 347 346 354
51 326 3 32 57 42 38 38 71 59 62 26 66 313 356 25 313 340 330 325 353 20 33 91 79 45 54 89 287 329 336 300 258 265 304 307 300 318 314 331 340 349 351 346 326 330 346 5 27 12 331 337 331 351
71 45 35 50 69 83 64 25 45 87 56 358 8 8 42 86 84 305 325 330 348 323 58 38 58 58 64 299 306 323 327 335 316 318 303 285 281 328 330 336 331 340 341 334 340 327 285 263 254 294 309 336 333 320
59 38 41 45 46 73 65 23 29 82 80 9 29 18 15 22 314 345 338 8 33 47 40 45 92 226 205 242 217 245 255 281 327 321 311 321 347 349 332 324 322 324 323 329 324 330 334 343 344 350 351 338 347 318
36 1 23 56 51 61 82 1 52 85 147 73 294 33 339 8 21 7 2 343 57 40 58 227 234 253 256 255 235 235 272 224 216 200 243 297 302 306 301 302 313 297 269 280 284 303 342 303 299 322 321 295 266 258
356 22 51 16 74 56 76 15 100 296 60 178 39 24 28 21 348 358 305 43 59 240 184 208 245 246 288 277 243 210 233 232 255 264 269 279 288 299 298 265 327 303 286 263 254 265 294 291 296 292 285 283 293 284
29 35 48 16 70 43 327 9 59 5 56 341 13 37 15 358 282 323 67 128 234 239 217 220 246 241 239 288 308 272 221 200 245 242 254 249 256 264 266 273 223 249 291 284 195 235 261 280 289 288 289 297 306 298
36 44 36 42 27 19 337 23 30 26 39 25 26 25 356 309 323 51 64 281 256 320 318 264 8 322 322 344 285 262 258 181 258 277 232 221 286 286 220 260 262 232 230 264 267 273 280 282 310 313 313 314 305 297
60 2 29 4 1 24 27 13 359 25 45 335 41 5 348 346 52 48 347 273 296 272 260 290 280 207 208 273 288 280 254 172 238 288 285 190 268 309 295 262 264 259 181 173 266 250 283 293 291 287 284 273 285 293
65 333 46 329 353 45 337 38 22 358 3 17 350 280 357 48 53 307 252 241 242 226 234 213 210 309 279 211 246 282 261 177 129 221 273 193 197 204 262 295 310 300 195 189 175 240 272 277 273 287 292 283 263 268
50 344 340 250 122 121 52 31 97 69 43 14 317 346 24 56 294 256 279 230 217 227 207 189 173 196 235 269 250 248 230 186 205 231 255 231 222 212 225 244 256 243 184 194 204 206 252 282 280 274 275 281 258 238
124 12 55 325 18 25 120 58 48 30 269 232 74 18 126 189 238 238 214 239 211 304 264 246 222 220 236 246 255 276 285 261 282 270 265 253 240 233 225 233 244 255 244 219 230 240 234 244 255 264 265 266 276 259
34 332 90 359 0 38 72 124 220 237 195 121 153 265 250 236 246 238 264 228 107 50 318 306 297 347 268 254 250 238 228 158 40 320 307 285 311 286 198 218 235 239 240 246 253 249 240 238 245 249 253 254 261 267
331 68 24 2 65 357 262 158 231 266 252 225 296 303 279 267 251 234 267 270 252 238 230 233 261 100 274 323 302 302 225 194 199 201 237 270 254 241 211 236 245 247 235 232 252 262 265 274 281 281 276 269 266 266
303 18 6 100 231 249 238 269 324 320 346 280 310 203 262 306 304 240 211 218 209 112 329 284 278 208 222 242 221 274 294 233 209 226 238 261 272 274 274 268 262 256 247 243 255 260 265 267 262 267 268 266 267 263
9 77 58 341 307 293 39 38 312 299 305 342 265 261 294 324 282 279 195 137 119 231 235 211 228 266 212 234 241 238 245 272 267 244 236 244 252 254 258 260 256 246 247 252 253 253 254 252 261 261 264 267 268 267
22 174 198 332 332 349 342 358 8 331 329 290 262 208 229 209 248 277 270 218 218 201 223 226 233 254 260 256 257 268 258 251 256 260 263 257 257 263 271 265 254 244 245 249 252 251 254 254 257 260 262 263 266 269